CW3728 Weather Reports


time (UTC)temp
C
wind
direction
speed
KPH
gust
KPH
rain 1hr
cm
rain 24hr
cm
rain mn
cm
humidity
%
barometer
mb
20260510095032 18 360 0.0 0.0 0.00 0.00 0.00 92 1006.7
20260510094528 18 360 0.0 0.0 0.00 0.00 0.00 93 1006.6
20260510094031 18 360 0.0 0.0 0.00 0.00 0.00 93 1006.6
20260510093536 18 360 0.0 0.0 0.00 0.00 0.00 92 1006.6
20260510093039 18 360 0.0 0.0 0.00 0.00 0.00 92 1006.0
20260510092521 18 360 0.0 0.0 0.00 0.00 0.00 92 1006.0
20260510092027 18 360 0.0 0.0 0.00 0.00 0.00 92 1006.0
20260510091539 18 360 0.0 0.0 0.00 0.00 0.00 93 1006.3
20260510091036 18 360 0.0 0.0 0.00 0.00 0.00 92 1006.3
20260510090527 18 360 0.0 0.0 0.00 0.00 0.00 92 1006.3
20260510090050 18 360 0.0 0.0 0.00 0.00 0.00 92 1006.3
20260510085520 18 360 0.0 0.0 0.00 0.00 0.00 92 1006.3
20260510085025 18 360 0.0 0.0 0.00 0.00 0.00 92 1006.3
20260510084527 19 360 0.0 0.0 0.00 0.00 0.00 92 1006.3
20260510084038 19 360 0.0 0.0 0.00 0.00 0.00 92 1006.3
20260510083522 19 360 0.0 0.0 0.00 0.00 0.00 92 1006.3
20260510083037 19 360 0.0 0.0 0.00 0.00 0.00 91 1006.4
20260510082519 19 360 0.0 0.0 0.00 0.00 0.00 91 1006.4
20260510082025 19 360 0.0 0.0 0.00 0.00 0.00 91 1006.4
20260510081534 20 360 0.0 0.0 0.00 0.00 0.00 92 1006.3
20260510081051 20 360 0.0 0.0 0.00 0.00 0.00 92 1006.3
20260510080556 20 360 0.0 0.0 0.00 0.00 0.00 92 1006.3
20260510080038 20 360 0.0 0.0 0.00 0.00 0.00 92 1006.3
20260510075543 20 360 0.0 0.0 0.00 0.00 0.00 91 1006.3
20260510075024 20 360 0.0 0.0 0.00 0.00 0.00 91 1006.3
20260510074550 20 115 0.0 0.0 0.00 0.00 0.00 91 1006.2
20260510074040 20 360 0.0 0.0 0.00 0.00 0.00 91 1006.2
20260510073523 20 360 0.0 0.0 0.00 0.00 0.00 92 1006.2
20260510073045 20 360 0.0 0.0 0.00 0.00 0.00 92 1006.3
20260510072530 20 360 0.0 0.0 0.00 0.00 0.00 91 1006.3
20260510072033 20 360 0.0 0.0 0.00 0.00 0.00 91 1006.3
20260510071527 20 360 0.0 0.0 0.00 0.00 0.00 90 1006.2
20260510071044 20 114 0.0 0.0 0.00 0.00 0.00 90 1006.2
20260510070523 20 360 0.0 0.0 0.00 0.00 0.00 90 1006.3
20260510070026 20 360 0.0 0.0 0.00 0.00 0.00 89 1006.3
20260510065527 20 360 0.0 0.0 0.00 0.00 0.00 89 1006.3
20260510065033 20 360 0.0 0.0 0.00 0.00 0.00 90 1006.3
20260510064534 20 360 0.0 0.0 0.00 0.00 0.00 90 1006.2
20260510064041 20 360 0.0 0.0 0.00 0.00 0.00 89 1006.2
20260510063551 20 360 0.0 0.0 0.00 0.00 0.00 89 1006.2
20260510063033 21 360 0.0 0.0 0.00 0.00 0.00 88 1006.2
20260510062548 21 360 0.0 0.0 0.00 0.00 0.00 88 1006.2
20260510062030 21 360 0.0 0.0 0.00 0.00 0.00 88 1006.2
20260510061532 21 360 0.0 0.0 0.00 0.00 0.00 88 1006.1
20260510061046 21 360 0.0 0.0 0.00 0.00 0.00 88 1006.2
20260510060539 21 360 0.0 0.0 0.00 0.00 0.00 88 1006.2
20260510060053 21 360 0.0 0.0 0.00 0.00 0.00 88 1006.2
20260510055533 21 360 0.0 0.0 0.00 0.00 0.00 88 1006.2
20260510055037 21 113 0.0 0.0 0.00 0.00 0.00 88 1006.2
20260510054547 21 360 0.0 0.0 0.00 0.00 0.00 88 1006.2
20260510054051 21 115 0.0 0.0 0.00 0.00 0.00 88 1006.2
20260510053543 22 116 0.0 0.0 0.00 0.00 0.00 87 1006.2
20260510053046 22 116 0.0 0.0 0.00 0.00 0.00 87 1006.3
20260510052533 22 116 0.0 0.0 0.00 0.00 0.00 87 1006.3
20260510052104 22 116 0.0 0.0 0.00 0.00 0.00 88 1006.3
20260510051548 22 116 0.0 0.0 0.00 0.00 0.00 88 1006.1
20260510051102 22 116 0.0 0.0 0.00 0.00 0.00 88 1006.1
20260510050536 22 116 0.0 0.0 0.00 0.00 0.00 88 1006.1
20260510050041 22 116 0.0 0.0 0.00 0.00 0.00 88 1005.9
20260510045536 21 116 0.0 0.0 0.00 0.00 0.00 88 1005.9
20260510045038 21 116 0.0 0.0 0.00 0.00 0.00 87 1005.9
20260510044545 21 116 0.0 0.0 0.00 0.00 0.00 87 1005.8
20260510044048 21 116 0.0 0.0 0.00 0.00 0.00 87 1005.8
20260510043550 22 116 0.0 0.0 0.00 0.00 0.00 86 1005.8
20260510043113 22 116 0.0 0.0 0.00 0.00 0.00 86 1005.8
20260510042603 22 116 0.0 0.0 0.00 0.00 0.00 86 1005.8
20260510042027 22 117 0.0 0.0 0.00 0.00 0.00 86 1005.8
20260510041554 22 116 0.0 0.0 0.00 0.00 0.00 85 1005.7
20260510041059 22 117 0.0 0.0 0.00 0.00 0.00 85 1005.7
20260510040549 22 116 0.0 0.0 0.00 0.00 0.00 85 1005.7
20260510040036 22 116 0.0 0.0 0.00 0.00 0.00 85 1005.5
20260510035549 22 116 0.0 0.0 0.00 0.00 0.00 84 1005.5
20260510035031 22 116 0.0 0.0 0.00 0.00 0.00 84 1005.5
20260510034539 22 116 0.0 0.0 0.00 0.00 0.00 84 1005.5
20260510034050 22 117 0.0 0.0 0.00 0.00 0.00 84 1005.5
20260510033531 22 116 0.0 0.0 0.00 0.00 0.00 83 1005.5
20260510033037 22 117 0.0 0.0 0.00 0.00 0.00 83 1005.5
20260510032609 23 117 0.0 0.0 0.00 0.00 0.00 83 1005.5
20260510032051 23 117 0.0 0.0 0.00 0.00 0.00 81 1005.5
20260510031608 23 117 0.0 0.0 0.00 0.00 0.00 81 1005.2
20260510031100 23 117 0.0 0.0 0.00 0.00 0.00 80 1005.2
20260510030532 23 360 0.0 0.0 0.00 0.00 0.00 80 1005.2
20260510030109 23 117 0.0 0.0 0.00 0.00 0.00 80 1005.2
20260510025549 23 117 0.0 0.0 0.00 0.00 0.00 79 1005.2
20260510025041 23 117 0.0 0.0 0.00 0.00 0.00 78 1005.2
20260510024545 23 117 0.0 0.0 0.00 0.00 0.00 78 1005.1
20260510024038 24 117 0.0 0.0 0.00 0.00 0.00 77 1005.1
20260510023544 24 117 0.0 0.0 0.00 0.00 0.00 76 1005.1
20260510023046 24 117 0.0 0.0 0.00 0.00 0.00 76 1004.9
20260510022544 25 117 0.0 0.0 0.00 0.00 0.00 76 1005.0
20260510022026 25 117 0.0 0.0 0.00 0.00 0.00 75 1005.0
20260510021534 25 117 0.0 0.0 0.00 0.00 0.00 75 1004.7
20260510021108 25 117 0.0 0.0 0.00 0.00 0.00 74 1004.7
20260510020542 25 117 0.0 0.0 0.00 0.00 0.00 74 1004.7
20260510020039 25 117 0.0 0.0 0.00 0.00 0.00 73 1004.7
20260510015540 25 117 0.0 0.0 0.00 0.00 0.00 71 1004.7
20260510015047 25 360 0.0 0.0 0.00 0.00 0.00 69 1004.7
20260510014551 26 117 0.0 0.0 0.00 0.00 0.00 69 1004.5
20260510014034 26 117 0.0 0.0 0.00 0.00 0.00 68 1004.5
20260510013540 26 117 0.0 0.0 0.00 0.00 0.00 66 1004.5
20260510013103 26 117 0.0 0.0 0.00 0.00 0.00 66 1004.2
20260510012548 26 117 0.0 0.0 0.00 0.00 0.00 64 1004.2
20260510012033 26 360 0.0 0.0 0.00 0.00 0.00 64 1004.2
20260510011550 27 360 0.0 0.0 0.00 0.00 0.00 63 1004.1
20260510011044 27 120 0.0 0.0 0.00 0.00 0.00 62 1004.1
20260510010535 27 120 0.0 0.0 0.00 0.00 0.00 61 1004.1
20260510010037 27 120 0.0 0.0 0.00 0.00 0.00 59 1004.0
20260510005539 28 120 0.0 0.0 0.00 0.00 0.00 56 1004.1
20260510005041 28 119 0.0 0.0 0.00 0.00 0.00 57 1004.1
20260510004542 28 119 0.0 0.0 0.00 0.00 0.00 57 1003.8
20260510004034 28 119 0.0 0.0 0.00 0.00 0.00 55 1003.8
20260510003542 29 119 0.0 0.0 0.00 0.00 0.00 59 1003.9
20260510003032 29 120 0.0 0.0 0.00 0.00 0.00 55 1003.7
20260510002541 30 120 0.0 0.0 0.00 0.00 0.00 56 1003.7
20260510002109 30 120 0.0 0.0 0.00 0.00 0.00 55 1003.7
20260510001529 30 119 0.0 0.0 0.00 0.00 0.00 54 1003.6
20260510001046 30 119 0.0 0.0 0.00 0.00 0.00 53 1003.6
20260510000537 30 120 0.0 0.0 0.00 0.00 0.00 52 1003.6
20260510000048 30 120 0.0 0.0 0.00 0.00 0.00 53 1003.4
20260509235550 30 119 0.0 0.0 0.00 0.00 0.00 53 1003.4
20260509235041 30 116 0.0 0.0 0.00 0.00 0.00 56 1003.4
20260509234547 30 116 0.0 0.0 0.00 0.00 0.00 57 1003.3
20260509234032 30 116 0.0 0.0 0.00 0.00 0.00 56 1003.3
20260509233549 30 116 0.0 0.0 0.00 0.00 0.00 52 1003.3
20260509233113 30 116 0.0 0.0 0.00 0.00 0.00 54 1003.4
20260509232534 31 116 0.0 0.0 0.00 0.00 0.00 56 1003.4
20260509232041 30 117 0.0 0.0 0.00 0.00 0.00 55 1003.4
20260509231543 31 116 0.0 0.0 0.00 0.00 0.00 51 1003.1
20260509231049 31 129 0.0 0.0 0.00 0.00 0.00 50 1003.1
20260509230600 31 189 0.0 0.0 0.00 0.00 0.00 53 1003.1
20260509230041 31 292 0.0 0.0 0.00 0.00 0.00 54 1003.1
20260509225528 31 84 0.0 0.0 0.00 0.00 0.00 57 1003.1
20260509225037 31 83 0.0 0.0 0.00 0.00 0.00 54 1003.1
20260509224539 30 83 0.0 0.0 0.00 0.00 0.00 56 1003.1
20260509224041 30 83 0.0 0.0 0.00 0.00 0.00 55 1003.1
20260509223528 30 83 0.0 0.0 0.00 0.00 0.00 58 1003.1
20260509223048 30 83 0.0 0.0 0.00 0.00 0.00 56 1003.3
20260509222549 29 83 0.0 0.0 0.00 0.00 0.00 56 1003.2
20260509222113 28 360 3.2 0.0 0.00 0.00 0.00 61 1003.2
20260509221547 27 79 4.8 0.0 0.00 0.00 0.00 60 1003.9
20260509221043 28 360 6.4 0.0 0.00 0.00 0.00 57 1003.9
20260509220531 28 360 9.7 0.0 0.00 0.00 0.00 61 1003.9
20260509220034 30 101 8.0 0.0 0.00 0.00 0.00 52 1003.5
20260509215542 32 99 6.4 0.0 0.00 0.00 0.00 53 1003.5
20260509215040 32 360 6.4 0.0 0.00 0.00 0.00 51 1003.6
20260509214545 33 360 3.2 0.0 0.00 0.00 0.00 50 1003.2
20260509214037 35 58 0.0 0.0 0.00 0.00 0.00 48 1003.3
20260509213543 34 360 0.0 0.0 0.00 0.00 0.00 49 1003.2
20260509213049 34 360 0.0 0.0 0.00 0.00 0.00 49 1003.3
20260509212544 34 206 0.0 0.0 0.00 0.00 0.00 47 1003.3
20260509212047 35 217 0.0 0.0 0.00 0.00 0.00 46 1003.3
20260509211548 35 360 0.0 0.0 0.00 0.00 0.00 50 1003.5
20260509211123 34 144 0.0 0.0 0.00 0.00 0.00 51 1003.5
20260509210537 34 143 0.0 0.0 0.00 0.00 0.00 49 1003.5
20260509210042 34 154 0.0 0.0 0.00 0.00 0.00 50 1003.6
20260509205544 33 360 0.0 0.0 0.00 0.00 0.00 51 1003.6
20260509205029 33 200 0.0 0.0 0.00 0.00 0.00 53 1003.6
20260509204536 33 360 0.0 0.0 0.00 0.00 0.00 51 1003.9
20260509204039 33 360 0.0 0.0 0.00 0.00 0.00 45 1003.9
20260509203602 33 360 0.0 0.0 0.00 0.00 0.00 48 1003.9
20260509203044 33 124 0.0 0.0 0.00 0.00 0.00 50 1004.1
20260509202534 33 360 0.0 0.0 0.00 0.00 0.00 49 1004.1
20260509202036 33 360 0.0 0.0 0.00 0.00 0.00 51 1004.1
20260509201543 33 360 0.0 0.0 0.00 0.00 0.00 52 1004.2
20260509201056 33 283 0.0 0.0 0.00 0.00 0.00 50 1004.3
20260509200534 33 267 0.0 0.0 0.00 0.00 0.00 51 1004.2
20260509200057 32 278 0.0 0.0 0.00 0.00 0.00 52 1004.6
20260509195550 32 270 0.0 0.0 0.00 0.00 0.00 51 1004.6
20260509195032 33 269 0.0 0.0 0.00 0.00 0.00 53 1004.6
20260509194541 33 241 0.0 0.0 0.00 0.00 0.00 52 1004.6
20260509194104 32 309 0.0 0.0 0.00 0.00 0.00 55 1004.6
20260509193545 32 295 0.0 0.0 0.00 0.00 0.00 52 1004.6
20260509193051 32 265 0.0 0.0 0.00 0.00 0.00 54 1005.1
20260509192532 32 244 0.0 0.0 0.00 0.00 0.00 55 1005.1
20260509192034 32 239 0.0 0.0 0.00 0.00 0.00 54 1005.1
20260509191542 32 246 0.0 0.0 0.00 0.00 0.00 56 1005.2
20260509191116 32 158 0.0 0.0 0.00 0.00 0.00 56 1005.3
20260509190551 32 147 0.0 0.0 0.00 0.00 0.00 56 1005.3
20260509190054 32 360 0.0 0.0 0.00 0.00 0.00 58 1005.6
20260509185546 32 301 0.0 0.0 0.00 0.00 0.00 58 1005.6
20260509185036 32 360 0.0 0.0 0.00 0.00 0.00 56 1005.6
20260509184558 32 360 0.0 0.0 0.00 0.00 0.00 57 1005.7
20260509184051 32 360 0.0 0.0 0.00 0.00 0.00 60 1005.7
20260509183534 31 296 0.0 0.0 0.00 0.00 0.00 58 1005.7
20260509183037 31 275 0.0 0.0 0.00 0.00 0.00 57 1005.7
20260509182540 31 360 0.0 0.0 0.00 0.00 0.00 57 1005.7
20260509182035 31 360 0.0 0.0 0.00 0.00 0.00 61 1005.7
20260509181537 31 360 0.0 0.0 0.00 0.00 0.00 61 1005.8
20260509181051 31 243 0.0 0.0 0.00 0.00 0.00 60 1005.8
20260509180541 31 360 0.0 0.0 0.00 0.00 0.00 61 1005.8
20260509180044 31 360 0.0 0.0 0.00 0.00 0.00 64 1006.0
20260509175548 30 348 0.0 0.0 0.00 0.00 0.00 61 1006.0
20260509175050 31 300 0.0 0.0 0.00 0.00 0.00 64 1006.0
20260509174532 31 287 0.0 0.0 0.00 0.00 0.00 62 1006.2
20260509174045 30 290 0.0 0.0 0.00 0.00 0.00 65 1006.1
20260509173531 30 296 0.0 0.0 0.00 0.00 0.00 67 1006.1
20260509173034 30 309 0.0 0.0 0.00 0.00 0.00 71 1006.3
20260509172535 29 303 0.0 0.0 0.00 0.00 0.00 69 1006.2
20260509172038 29 360 0.0 0.0 0.00 0.00 0.00 68 1006.2
20260509171601 29 360 0.0 0.0 0.00 0.00 0.00 70 1006.3
20260509171057 28 360 0.0 0.0 0.00 0.00 0.00 70 1006.3
20260509170548 29 311 0.0 0.0 0.00 0.00 0.00 68 1006.3
20260509170051 29 263 0.0 0.0 0.00 0.00 0.00 72 1006.2
20260509165553 29 360 0.0 0.0 0.00 0.00 0.00 71 1006.2
20260509165038 28 263 0.0 0.0 0.00 0.00 0.00 74 1006.2
20260509164548 28 264 0.0 0.0 0.00 0.00 0.00 73 1006.3
20260509164050 28 264 0.0 0.0 0.00 0.00 0.00 73 1006.3
20260509163542 27 302 0.0 0.0 0.00 0.00 0.00 76 1006.3
20260509163045 27 302 0.0 0.0 0.00 0.00 0.00 76 1006.3
20260509162539 27 278 0.0 0.0 0.00 0.00 0.00 77 1006.3
20260509162042 27 266 0.0 0.0 0.00 0.00 0.00 77 1006.3
20260509161543 27 360 0.0 0.0 0.00 0.00 0.00 78 1006.3
20260509161050 27 295 0.0 0.0 0.00 0.00 0.00 80 1006.3
20260509160544 26 295 0.0 0.0 0.00 0.00 0.00 79 1006.2
20260509160047 27 281 0.0 0.0 0.00 0.00 0.00 78 1006.2
20260509155549 26 360 0.0 0.0 0.00 0.00 0.00 81 1006.2
20260509155051 26 360 0.0 0.0 0.00 0.00 0.00 81 1006.2
20260509154547 26 360 0.0 0.0 0.00 0.00 0.00 82 1006.3
20260509154030 26 360 0.0 0.0 0.00 0.00 0.00 82 1006.3
20260509153536 26 176 0.0 0.0 0.00 0.00 0.00 84 1006.3
20260509153039 26 106 0.0 0.0 0.00 0.00 0.00 86 1006.2
20260509152546 25 103 0.0 0.0 0.00 0.00 0.00 87 1006.1
20260509152031 25 360 0.0 0.0 0.00 0.00 0.00 88 1006.1
20260509151536 25 98 0.0 0.0 0.00 0.00 0.00 90 1006.8
20260509151051 24 360 0.0 0.0 0.00 0.00 0.00 92 1006.8
20260509150550 23 360 0.0 0.0 0.00 0.00 0.00 92 1006.7
20260509150033 23 360 0.0 0.0 0.00 0.00 0.00 92 1006.8
20260509145536 23 360 0.0 0.0 0.00 0.00 0.00 93 1006.8
20260509145039 23 360 0.0 0.0 0.00 0.00 0.00 93 1006.8
20260509144530 23 360 0.0 0.0 0.00 0.00 0.00 93 1006.8
20260509144036 23 360 0.0 0.0 0.00 0.00 0.00 93 1006.8
20260509143544 23 360 0.0 0.0 0.00 0.00 0.00 93 1006.8
20260509143047 23 360 0.0 0.0 0.00 0.00 0.00 93 1006.6
20260509142534 23 360 0.0 0.0 0.00 0.00 0.00 93 1006.6
20260509142037 23 360 0.0 0.0 0.00 0.00 0.00 93 1006.6
20260509141550 23 360 0.0 0.0 0.00 0.00 0.00 93 1006.1
20260509141045 23 360 0.0 0.0 0.00 0.00 0.00 94 1006.1
20260509140548 22 360 0.0 0.0 0.00 0.00 0.00 94 1006.1
20260509140033 22 360 0.0 0.0 0.00 0.00 0.00 94 1005.8
20260509135537 22 360 0.0 0.0 0.00 0.00 0.00 94 1005.8
20260509135051 22 360 0.0 0.0 0.00 0.00 0.00 94 1005.8
20260509134533 22 360 0.0 0.0 0.00 0.00 0.00 94 1006.2
20260509134035 22 360 0.0 0.0 0.00 0.00 0.00 94 1006.2
20260509133547 22 360 0.0 0.0 0.00 0.00 0.00 94 1006.2
20260509133111 22 360 0.0 0.0 0.00 0.00 0.00 94 1006.1
20260509132532 22 360 0.0 0.0 0.00 0.00 0.00 94 1006.1
20260509132038 22 360 0.0 0.0 0.00 0.00 0.00 94 1006.1
20260509131540 22 360 0.0 0.0 0.00 0.00 0.00 94 1006.1
20260509131054 22 360 0.0 0.0 0.00 0.00 0.00 95 1006.1
20260509130544 22 360 0.0 0.0 0.00 0.00 0.00 95 1006.1
20260509130040 22 360 0.0 0.0 0.00 0.00 0.00 95 1005.6
20260509125541 22 360 0.0 0.0 0.00 0.00 0.00 95 1005.6
20260509125032 22 360 0.0 0.0 0.00 0.00 0.00 95 1005.6
20260509124538 22 360 0.0 0.0 0.00 0.00 0.00 95 1005.7
20260509124101 22 25 0.0 0.0 0.00 0.00 0.00 95 1005.7
20260509123540 22 360 0.0 0.0 0.00 0.00 0.00 95 1005.7
20260509123043 22 360 0.0 0.0 0.00 0.00 0.00 95 1005.8
20260509122533 22 360 0.0 0.0 0.00 0.00 0.00 95 1005.8
20260509122036 22 360 0.0 0.0 0.00 0.00 0.00 95 1005.8
20260509121558 22 360 0.0 0.0 0.00 0.00 0.00 95 1006.2
20260509121051 22 360 0.0 0.0 0.00 0.00 0.00 95 1006.2
20260509120603 22 25 0.0 0.0 0.00 0.00 0.00 94 1006.2
20260509120049 22 360 0.0 0.0 0.00 0.00 0.00 95 1006.0
20260509115550 22 360 0.0 0.0 0.00 0.00 0.00 94 1006.0
20260509115033 22 360 0.0 0.0 0.00 0.00 0.00 94 1006.0
20260509114535 22 360 0.0 0.0 0.00 0.00 0.00 94 1005.9
20260509114037 22 360 0.0 0.0 0.00 0.00 0.00 94 1005.9
20260509113542 22 360 0.0 0.0 0.00 0.00 0.00 94 1005.9
20260509113045 22 360 0.0 0.0 0.00 0.00 0.00 94 1006.0
20260509112548 22 360 0.0 0.0 0.00 0.00 0.00 94 1006.0
20260509112053 22 360 0.0 0.0 0.00 0.00 0.00 94 1006.0
20260509111534 22 360 0.0 0.0 0.00 0.00 0.00 94 1005.7
20260509111048 22 360 0.0 0.0 0.00 0.00 0.00 94 1005.7
20260509110547 22 360 0.0 0.0 0.00 0.00 0.00 94 1005.7
20260509110033 22 360 0.0 0.0 0.00 0.00 0.00 94 1005.5
20260509105537 22 360 0.0 0.0 0.00 0.00 0.00 94 1005.5
20260509105040 22 360 0.0 0.0 0.00 0.00 0.00 94 1005.5
20260509104544 22 360 0.0 0.0 0.00 0.00 0.00 94 1005.7
20260509104047 22 153 0.0 0.0 0.00 0.00 0.00 94 1005.7
20260509103548 22 153 0.0 0.0 0.00 0.00 0.00 94 1005.7
20260509103031 22 360 0.0 0.0 0.00 0.00 0.00 94 1005.7
20260509102533 22 360 0.0 0.0 0.00 0.00 0.00 94 1005.7
20260509102048 22 360 0.0 0.0 0.00 0.00 0.00 94 1005.7
20260509101609 22 360 0.0 0.0 0.00 0.00 0.00 94 1005.5
20260509101042 22 360 0.0 0.0 0.00 0.00 0.00 94 1005.5
20260509100554 22 360 0.0 0.0 0.00 0.00 0.00 94 1005.5
20260509100038 22 360 0.0 0.0 0.00 0.00 0.00 94 1005.3
20260509095600 22 360 0.0 0.0 0.00 0.00 0.00 94 1005.3